Regional Weather Roundup
Issued by NWS

Home | Current Version | Previous Version | Graphics & Text | Print | Product List | Glossary On
Versions: 1 2 3 4 5 6 7 8 9 10 11 12 13 14 15 16 17 18 19 20 21 22 23 24 25 26 27 28 29 30 31 32 33 34 35 36 37 38 39 40 41 42 43 44 45 46 47 48 49 50
000
ASUS43 KIND 050359
RWRIN

WEATHER ROUNDUP FOR INDIANA
NATIONAL WEATHER SERVICE INDIANAPOLIS IN
1200 AM EDT SUN JUL 05 2015

NOTE: "FAIR" INDICATES FEW OR NO CLOUDS BELOW 12,000 FEET WITH NO
SIGNIFICANT WEATHER AND/OR OBSTRUCTIONS TO VISIBILITY.

* - STATION DOES NOT REPORT WEATHER SUCH AS PRECIPITATION OR FOG.

+ - STATION NOT QUALITY CONTROLLED BY THE NATIONAL WEATHER SERVICE.
    USE DATA WITH CAUTION...ESPECIALLY DEWPOINT AND RELATIVE
    HUMIDITY OBSERVATIONS.

INZ001>003-010>013-019-020-050500-
NORTHWEST INDIANA

CITY           SKY/WX    TMP DP  RH WIND       PRES   REMARKS
MONTICELLO +   FAIR      66  64  96 CALM      30.04S FOG

$$

LMZ046-743>745-050500-
SOUTHERN LAKE MICHIGAN

STATION/POSITION TIME  TEMP    WIND        PRES    WAVE
                       AIR SEA DIR/SP/G            HT
                 (UTC) (F)     (DEG/KT/KT) (MB)    (FT)
BURNS HARBOR     0300   74     150/  8/ 11 1017.6R
MICHIGAN CITY    0300   71     110/  5/  6   N/A
5NW MICH CITY    0300   67 65  130/  2/  4   N/A     0

$$

INZ004-005-014>016-021>024-050500-
NORTH CENTRAL INDIANA

CITY           SKY/WX    TMP DP  RH WIND       PRES   REMARKS
GOSHEN         CLEAR     63  59  87 CALM      30.06R FOG
PERU/GRISSOM   CLEAR     66  61  82 CALM      30.05R
SOUTH BEND     CLEAR     64  59  83 CALM      30.06R

$$

INZ006>009-017-018-025>027-050500-
NORTHEAST INDIANA

CITY           SKY/WX    TMP DP  RH WIND       PRES   REMARKS
ANGOLA *+        N/A     63  61  94 CALM      30.06R
FORT WAYNE     CLEAR     66  61  84 CALM      30.06R

$$

INZ028-029-035-036-043>045-051>053-050500-
WEST CENTRAL INDIANA

CITY           SKY/WX    TMP DP  RH WIND       PRES   REMARKS
GREENCASTLE +  PTCLDY    64  61  88 CALM      30.06R
LAFAYETTE      CLEAR     64  61  90 CALM      30.04R FOG
TERRE HAUTE    PTCLDY    68  64  87 CALM      30.04R FOG

$$

INZ030>032-037>040-046>048-054>057-064-065-050500-
CENTRAL INDIANA

CITY           SKY/WX    TMP DP  RH WIND       PRES   REMARKS
FRANKFORT +    CLEAR     65  65 100 CALM      30.08R FOG
GREENWOOD *+   MOCLDY    66  61  82 CALM      30.06R
INDIANAPOLIS   MOCLDY    71  58  63 NE7       30.03R HAZE
-EAGLE CREEK   PTCLDY    69  60  73 CALM      30.05R
KOKOMO *+      CLEAR     64  61  88 CALM      30.05R
MT COMFORT *+  MOCLDY    64 N/A N/A CALM      30.06S
SHELBYVILLE    CLOUDY    67  63  87 NE3       30.04R

$$

INZ033-034-041-042-049-050-058-059-050500-
EAST CENTRAL INDIANA

CITY           SKY/WX    TMP DP  RH WIND       PRES   REMARKS
MUNCIE         PTCLDY    67  59  75 CALM      30.06S

$$

INZ060-061-067>069-081>083-085>088-050500-
SOUTHWEST INDIANA

CITY           SKY/WX    TMP DP  RH WIND       PRES   REMARKS
EVANSVILLE     CLOUDY    74  68  81 CALM      30.02R SMOKE
HUNTINGBURG *+ CLOUDY    72  66  83 CALM      30.03R

$$

INZ062-063-066-070>080-084-089>092-050500-
SOUTH CENTRAL AND SOUTHEAST INDIANA

CITY           SKY/WX    TMP DP  RH WIND       PRES   REMARKS
BLOOMINGTON    MOCLDY    67  65  93 CALM      30.04R
MADISON *+     CLOUDY    72  64  78 E3        30.07R
SEYMOUR +      CLOUDY    70  66  88 E3        30.04R

$$




USA.gov is the U.S. government's official web portal to all federal, state and local government web resources and services.